TimePDT,TemperatureF,Dew PointF,Humidity,Sea Level PressureIn,VisibilityMPH,Wind Direction,Wind SpeedMPH,Gust SpeedMPH,PrecipitationIn,Events,Conditions,WindDirDegrees,DateUTC
12:53 AM,43.0,23.0,45,29.81,-9999.0,Variable,4.6,-,N/A,,Unknown,0,2013-03-17 07:53:00
1:53 AM,46.0,21.0,37,29.81,-9999.0,WNW,20.7,33.4,N/A,,Unknown,300,2013-03-17 08:53:00
2:53 AM,44.1,21.9,42,29.82,-9999.0,WNW,23.0,29.9,N/A,,Unknown,300,2013-03-17 09:53:00
3:53 AM,41.0,21.0,45,29.83,-9999.0,West,8.1,-,N/A,,Unknown,270,2013-03-17 10:53:00
4:53 AM,39.0,21.0,49,29.84,-9999.0,SSW,3.5,-,N/A,,Unknown,210,2013-03-17 11:53:00
5:53 AM,36.0,19.9,52,29.87,-9999.0,WSW,6.9,-,N/A,,Unknown,240,2013-03-17 12:53:00
6:53 AM,33.1,19.0,56,29.91,-9999.0,SW,5.8,-,N/A,,Unknown,230,2013-03-17 13:53:00
7:53 AM,37.9,21.0,51,29.90,-9999.0,SW,8.1,-,N/A,,Unknown,230,2013-03-17 14:53:00
8:53 AM,45.0,19.0,36,29.91,-9999.0,WSW,20.7,27.6,N/A,,Unknown,250,2013-03-17 15:53:00
9:53 AM,48.0,12.9,24,29.87,-9999.0,West,23.0,34.5,N/A,,Unknown,260,2013-03-17 16:53:00
10:53 AM,50.0,10.9,21,29.88,-9999.0,WNW,18.4,28.8,N/A,,Unknown,290,2013-03-17 17:53:00
11:53 AM,52.0,10.9,19,29.90,-9999.0,West,18.4,27.6,N/A,,Unknown,270,2013-03-17 18:53:00
12:53 PM,54.0,10.0,17,29.88,-9999.0,NW,21.9,31.1,N/A,,Unknown,320,2013-03-17 19:53:00
1:53 PM,53.1,8.1,16,29.86,-9999.0,NW,23.0,34.5,N/A,,Unknown,310,2013-03-17 20:53:00
2:53 PM,54.0,8.1,16,29.86,-9999.0,NW,18.4,29.9,N/A,,Unknown,320,2013-03-17 21:53:00
3:53 PM,54.0,8.1,16,29.86,-9999.0,WNW,26.5,34.5,N/A,,Unknown,290,2013-03-17 22:53:00
4:53 PM,53.1,7.0,16,29.88,-9999.0,WNW,23.0,31.1,N/A,,Unknown,300,2013-03-17 23:53:00
5:53 PM,51.1,5.0,15,29.90,-9999.0,WNW,15.0,27.6,N/A,,Unknown,290,2013-03-18 00:53:00
6:53 PM,46.9,5.0,18,29.94,-9999.0,WNW,16.1,21.9,N/A,,Unknown,300,2013-03-18 01:53:00
7:53 PM,45.0,5.0,19,29.94,-9999.0,WNW,11.5,-,N/A,,Unknown,300,2013-03-18 02:53:00
8:53 PM,39.9,7.0,26,29.95,-9999.0,Variable,3.5,-,N/A,,Unknown,0,2013-03-18 03:53:00
9:53 PM,36.0,9.0,33,29.96,-9999.0,Calm,Calm,-,N/A,,Unknown,0,2013-03-18 04:53:00
10:53 PM,37.0,10.0,33,29.95,-9999.0,South,8.1,-,N/A,,Unknown,190,2013-03-18 05:53:00
11:53 PM,30.0,12.0,47,29.98,-9999.0,South,5.8,-,N/A,,Unknown,180,2013-03-18 06:53:00